Hourly Data Report for June 30, 2021

OTTAWA INTL A
ONTARIO
Current Station Operator: NAVCAN

45°19'00.000" N
75°40'00.000" W
114.90 m
6106001
71628
YOW

Download Data

Hourly Data (June 2021)
Hourly Data Report for June 30, 2021
TIME
LST
Temp Definition
°C
Dew Point Definition
°C
Rel Hum Definition
%
Precip. Amount Definition
mm

Wind Dir Definition
10's deg

Wind Spd Definition
km/h
Visibility Definition
km
Stn Press Definition
kPa
Hmdx Definition


Wind Chill Definition


Weather Definition


00:00 20.9 20.0 94   17 10 24.1 100.15 28   LegendNANA
01:00 21.7 21.1 96   21 9 16.1 100.05 30   Mostly Cloudy
02:00 22.3 21.5 95   21 10 16.1 100.01 31   LegendNANA
03:00 22.4 21.4 94   23 15 12.9 99.99 31   LegendNANA
04:00 22.2 21.1 94   22 14 12.9 99.99 31   Mostly Cloudy
05:00 22.1 21.1 94   23 11 16.1 99.99 31   Rain Showers
06:00 22.2 21.3 95   22 11 16.1 100.00 31   LegendNANA
07:00 23.0 21.6 92   22 11 24.1 99.97 32   Mostly Cloudy
08:00 24.5 21.7 84   25 14 24.1 99.95 34   LegendNANA
09:00 24.6 21.3 81   24 18 24.1 99.89 33   LegendNANA
10:00 25.4 21.5 79   23 16 24.1 99.84 34   Mostly Cloudy
11:00 27.3 19.8 63   27 18 24.1 99.78 35   LegendNANA
12:00 27.9 19.2 59   27 18 24.1 99.71 35   LegendNANA
13:00 29.1 19.4 55   25 23 24.1 99.65 36   Mostly Cloudy
14:00 29.9 18.8 51   25 27 24.1 99.58 37   LegendNANA
15:00 24.5 19.4 73   30 29 24.1 99.64 32   LegendNANA
16:00 25.1 18.2 65   31 40 24.1 99.60 31   Mostly Cloudy
17:00 26.3 18.7 62   30 27 24.1 99.66 33   LegendNANA
18:00 23.9 16.4 62   34 28 24.1 99.75 29   LegendNANA
19:00 23.1 14.9 60   33 22 24.1 99.85 27   Mostly Cloudy
20:00 21.6 15.8 69   36 13 24.1 99.84 26   LegendNANA
21:00 20.4 15.3 72   35 11 24.1 99.89 25   LegendNANA
22:00 19.6 15.1 75   34 12 24.1 99.89     Mainly Clear
23:00 18.5 15.1 81   35 9 24.1 99.88     LegendNANA

Notes on Data Quality.

Legend

  • E = Estimated
  • M = Missing
  • NA = Not Available*
  • [empty] = Indicates an unobserved value
Date modified: